Погода в Каменном

Украина / Запорожская область     47°52′28″N   35°23′57″E
темп.,
°C
ветер,
м/с
пор.,
м/с
влажн.,
%
обл.,
%
осадки,
мм/ч
давл.,
гПа
погр.,
м
11 мая, вт
вт1100:00+11ссз81465100 0.1 10161041
03:00+9ссз81485100 1.2 1014764
06:00+10ссз7128899 0.3 1013506
09:00+13с9147793 0.3 1012963
12:00+12ссв81283100 0.0 10131195
15:00+14св895471 0.1 10141840
18:00+13ссв710576 0.0 10141716
21:00+8ссв377926 0.0 1015169
12 мая, ср
ср1200:00+8с5782100 0.1 1014714
03:00+8с3688100 0.4 1012523
06:00+7в4690100 1.1 1013338
09:00+9вюв4579100 1.6 1013718
12:00+11ююв3466100 0.8 10131166
15:00+13ю456040 2.6 10131370
18:00+12ю686878 1.2 1013781
21:00+9ю338015 1.3 101334
13 мая, чт
чт1300:00+7ююв359094 0.0 101470
03:00+7юв229198 0.0 101411
06:00+9в2391100 0.0 1014105
09:00+14в33735 0.0 1014512
12:00+19юв34535 0.0 10131238
15:00+22ююв3546100 0.0 10121874
18:00+21юв4657100 0.0 1011332
21:00+15вюв4675100 0.0 101284
14 мая, пт
пт1400:00+14в4888100 0.0 1011132
03:00+14вюв469293 0.0 101099
06:00+14вюв369495 0.1 1010134
09:00+20юв3477100 0.1 1010419
12:00+25ююв3451100 0.0 10091033
15:00+26ююз454498 0.0 10091559
18:00+25зюз345082 0.0 1009385
21:00+18юз336270 0.0 100919
15 мая, сб
сб1500:00+16зюз35780 0.0 101082
03:00+14юз34908 0.0 101154
06:00+14зюз348987 0.0 101297
09:00+19зюз346719 0.0 1013575
12:00+23юз4452100 0.0 10131345
15:00+24зюз354533 0.0 10131717
18:00+22зюз235581 0.0 1012126
21:00+20ююв335676 0.0 101233